Location: Bryzozowice
(50.3667°N, 18.9667°E)
Time: 05:11:13
(UTC+00:00)

Cosmos 44 - Pass Details

Date: 24 January 2020
Orbit: 595 x 767 km, 65.1° (Epoch: 24 February)

Event Time Altitude Azimuth Distance (km) Brightness Sun altitude
Rises 18:20:59 0° 242° (WSW) 2,926 7.4 -28.1°
Reaches altitude 10° 18:23:25 10° 250° (WSW) 1,997 6.5 -28.5°
Enters shadow 18:27:17 38° 308° (NW) 938 4.3 -29.1°
